Retour au catalogue

STARLINK-3911

ActifCommunicationsVLEO
NORAD 52565·PAYLOAD·🇺🇸 United States

Lancé May 13, 2022 depuis Vandenberg Space Force Base

Loading…

Prochains Passages (prochaines 24 heures)

TLE

FraisSource: CelesTrak SupGP

Époque: Sep 14, 2026, 20:58 UTC

1 52565C 22051AJ  26257.87409722 -.00035496  00000+0 -10773-2 0  2579
2 52565  53.1587 344.1944 0001259  83.0720 236.5329 15.33561835    11

Suivez STARLINK-3911 en temps réel avec AllMySat

Download on the App Store